ASIASAT 8               
1 40107U 14046A   19260.33656878 -.00000038  00000-0  00000+0 0  9992
2 40107   0.0447 275.6502 0001980 248.5592 309.0583  1.00272282 18785
FALCON 9 R/B            
1 40108U 14046B   19260.47097600  .00010760  00000-0  44981-3 0  9992
2 40108  24.2609 326.8819 6267415 136.5939 294.7671  3.70847905 56057